Weather in Kniahynynok

Ukraine / Volyn Oblast     50°47′48″N   25°16′03″E
temp.,
°C
wind,
m/s
gust,
m/s
humid.,
%
clouds,
%
prec.,
mm/h
press.,
hPa
HPBL,
m
16 june, wed
wed1600:00+14nnw3482100 0.0 101650
03:00+14n349390 0.0 101760
06:00+13n359333 0.0 101690
09:00+18nne35805 0.0 1017399
12:00+21nne457130 1.4 1018856
15:00+24ne355841 2.6 10171565
18:00+22n47713 0.6 1017578
21:00+17nne37850 0.8 1018131
17 june, thu
thu1700:00+13nne33810 0.0 102042
03:00+12nne23890 0.0 102022
06:00+11nne22890 0.0 102134
09:00+17ne34764 0.0 1022311
12:00+22ene33640 0.0 1022878
15:00+24ene345935 0.0 10211552
18:00+24ene246222 0.0 10211083
21:00+20ene33805 0.1 102140
18 june, fri
fri1800:00+17e33900 0.0 102335
03:00+16ese33920 0.0 102337
06:00+15ese34920 0.0 102381
09:00+20ese46793 0.0 1023432
12:00+23e56650 0.0 10231006
15:00+25e56580 0.0 10221293
18:00+25ese46680 0.0 10211211
21:00+20ese49860 0.0 1021206
19 june, sat
sat1900:00+17ese38900 0.0 1022141
03:00+17se37955 0.0 1022137
06:00+16ese369516 0.0 1022140
09:00+21ese46813 0.0 1022453
12:00+24ese566971 0.1 10211326
15:00+23ese457355 0.2 1020816
18:00+25e35634 0.0 10191593
21:00+20se410845 0.0 1019273
20 june, sun
sun2000:00+17se37940 0.0 1020130
03:00+16se349523 0.0 102069
06:00+15ese35951 0.0 102095
09:00+20ese467925 0.0 1020499
12:00+24se466159 0.0 10191516
15:00+24ese346636 0.1 10181118
18:00+25e446927 0.1 10171091
21:00+21ese348794 1.3 101758